Year,Month,Day,Hour,Minute,Value (Times are PST for temperature in C)
2015,09,21,00,00,9.60
2015,09,21,00,01,9.60
2015,09,21,00,02,9.50
2015,09,21,00,03,9.50
2015,09,21,00,04,9.40
2015,09,21,00,05,9.40
2015,09,21,00,06,9.40
2015,09,21,00,07,9.30
2015,09,21,00,08,9.30
2015,09,21,00,09,9.30
2015,09,21,00,10,9.30
2015,09,21,00,11,9.20
2015,09,21,00,12,9.20
2015,09,21,00,13,9.20
2015,09,21,00,14,9.20
2015,09,21,00,15,9.20
2015,09,21,00,16,9.20
2015,09,21,00,17,9.20
2015,09,21,00,18,9.20
2015,09,21,00,19,9.10
2015,09,21,00,20,9.10
2015,09,21,00,21,9.10
2015,09,21,00,22,9.10
2015,09,21,00,23,9.00
2015,09,21,00,24,9.00
2015,09,21,00,25,8.90
2015,09,21,00,26,8.90
2015,09,21,00,27,8.90
2015,09,21,00,28,8.80
2015,09,21,00,29,8.80
2015,09,21,00,30,8.80
2015,09,21,00,31,8.80
2015,09,21,00,32,8.70
2015,09,21,00,33,8.70
2015,09,21,00,34,8.70
2015,09,21,00,35,8.60
2015,09,21,00,36,8.60
2015,09,21,00,37,8.50
2015,09,21,00,38,8.50
2015,09,21,00,39,8.50
2015,09,21,00,40,8.40
2015,09,21,00,41,8.40
2015,09,21,00,42,8.30
2015,09,21,00,43,8.30
2015,09,21,00,44,8.30
2015,09,21,00,45,8.30
2015,09,21,00,46,8.30
2015,09,21,00,47,8.20
2015,09,21,00,48,8.20
2015,09,21,00,49,8.20
2015,09,21,00,50,8.20
2015,09,21,00,51,8.10
2015,09,21,00,52,8.10
2015,09,21,00,53,8.10
2015,09,21,00,54,8.10
2015,09,21,00,55,8.10
2015,09,21,00,56,8.10
2015,09,21,00,57,8.00
2015,09,21,00,58,8.00
2015,09,21,00,59,8.00
2015,09,21,01,00,7.90
2015,09,21,01,01,7.90
2015,09,21,01,02,7.90
2015,09,21,01,03,7.80
2015,09,21,01,04,7.80
2015,09,21,01,05,7.80
2015,09,21,01,06,7.80
2015,09,21,01,07,7.80
2015,09,21,01,08,7.70
2015,09,21,01,09,7.70
2015,09,21,01,10,7.70
2015,09,21,01,11,7.70
2015,09,21,01,12,7.60
2015,09,21,01,13,7.60
2015,09,21,01,14,7.60
2015,09,21,01,15,7.60
2015,09,21,01,16,7.60
2015,09,21,01,17,7.60
2015,09,21,01,18,7.60
2015,09,21,01,19,7.60
2015,09,21,01,20,7.60
2015,09,21,01,21,7.60
2015,09,21,01,22,7.60
2015,09,21,01,23,7.60
2015,09,21,01,24,7.60
2015,09,21,01,25,7.70
2015,09,21,01,26,7.70
2015,09,21,01,27,7.70
2015,09,21,01,28,7.70
2015,09,21,01,29,7.70
2015,09,21,01,30,7.70
2015,09,21,01,31,7.60
2015,09,21,01,32,7.60
2015,09,21,01,33,7.60
2015,09,21,01,34,7.60
2015,09,21,01,35,7.60
2015,09,21,01,36,7.50
2015,09,21,01,37,7.50
2015,09,21,01,38,7.50
2015,09,21,01,39,7.50
2015,09,21,01,40,7.50
2015,09,21,01,41,7.50
2015,09,21,01,42,7.40
2015,09,21,01,43,7.40
2015,09,21,01,44,7.40
2015,09,21,01,45,7.40
2015,09,21,01,46,7.30
2015,09,21,01,47,7.30
2015,09,21,01,48,7.30
2015,09,21,01,49,7.30
2015,09,21,01,50,7.30
2015,09,21,01,51,7.30
2015,09,21,01,52,7.30
2015,09,21,01,53,7.30
2015,09,21,01,54,7.30
2015,09,21,01,55,7.30
2015,09,21,01,56,7.30
2015,09,21,01,57,7.30
2015,09,21,01,58,7.30
2015,09,21,01,59,7.30
2015,09,21,02,00,7.40
2015,09,21,02,01,7.30
2015,09,21,02,02,7.40
2015,09,21,02,03,7.40
2015,09,21,02,04,7.40
2015,09,21,02,05,7.40
2015,09,21,02,06,7.40
2015,09,21,02,07,7.40
2015,09,21,02,08,7.40
2015,09,21,02,09,7.40
2015,09,21,02,10,7.40
2015,09,21,02,11,7.30
2015,09,21,02,12,7.30
2015,09,21,02,13,7.30
2015,09,21,02,14,7.30
2015,09,21,02,15,7.30
2015,09,21,02,16,7.20
2015,09,21,02,17,7.20
2015,09,21,02,18,7.20
2015,09,21,02,19,7.20
2015,09,21,02,20,7.10
2015,09,21,02,21,7.10
2015,09,21,02,22,7.10
2015,09,21,02,23,7.10
2015,09,21,02,24,7.10
2015,09,21,02,25,7.00
2015,09,21,02,26,7.00
2015,09,21,02,27,7.00
2015,09,21,02,28,7.00
2015,09,21,02,29,7.00
2015,09,21,02,30,7.00
2015,09,21,02,31,7.00
2015,09,21,02,32,7.00
2015,09,21,02,33,7.00
2015,09,21,02,34,7.00
2015,09,21,02,35,7.10
2015,09,21,02,36,7.10
2015,09,21,02,37,7.10
2015,09,21,02,38,7.10
2015,09,21,02,39,7.10
2015,09,21,02,40,7.10
2015,09,21,02,41,7.10
2015,09,21,02,42,7.10
2015,09,21,02,43,7.10
2015,09,21,02,44,7.10
2015,09,21,02,45,7.10
2015,09,21,02,46,7.10
2015,09,21,02,47,7.10
2015,09,21,02,48,7.10
2015,09,21,02,49,7.10
2015,09,21,02,50,7.10
2015,09,21,02,51,7.10
2015,09,21,02,52,7.20
2015,09,21,02,53,7.20
2015,09,21,02,54,7.20
2015,09,21,02,55,7.20
2015,09,21,02,56,7.30
2015,09,21,02,57,7.40
2015,09,21,02,58,7.40
2015,09,21,02,59,7.50
2015,09,21,03,00,7.60
2015,09,21,03,01,7.70
2015,09,21,03,02,7.80
2015,09,21,03,03,7.90
2015,09,21,03,04,8.00
2015,09,21,03,05,8.00
2015,09,21,03,06,8.10
2015,09,21,03,07,8.20
2015,09,21,03,08,8.30
2015,09,21,03,09,8.50
2015,09,21,03,10,8.60
2015,09,21,03,11,8.70
2015,09,21,03,12,8.70
2015,09,21,03,13,8.80
2015,09,21,03,14,8.80
2015,09,21,03,15,8.90
2015,09,21,03,16,9.00
2015,09,21,03,17,9.00
2015,09,21,03,18,9.10
2015,09,21,03,19,9.10
2015,09,21,03,20,9.20
2015,09,21,03,21,9.20
2015,09,21,03,22,9.20
2015,09,21,03,23,9.30
2015,09,21,03,24,9.30
2015,09,21,03,25,9.30
2015,09,21,03,26,9.30
2015,09,21,03,27,9.40
2015,09,21,03,28,9.40
2015,09,21,03,29,9.40
2015,09,21,03,30,9.40
2015,09,21,03,31,9.40
2015,09,21,03,32,9.40
2015,09,21,03,33,9.50
2015,09,21,03,34,9.50
2015,09,21,03,35,9.50
2015,09,21,03,36,9.50
2015,09,21,03,37,9.50
2015,09,21,03,38,9.50
2015,09,21,03,39,9.50
2015,09,21,03,40,9.50
2015,09,21,03,41,9.50
2015,09,21,03,42,9.50
2015,09,21,03,43,9.50
2015,09,21,03,44,9.40
2015,09,21,03,45,9.40
2015,09,21,03,46,9.40
2015,09,21,03,47,9.30
2015,09,21,03,48,9.30
2015,09,21,03,49,9.30
2015,09,21,03,50,9.20
2015,09,21,03,51,9.20
2015,09,21,03,52,9.20
2015,09,21,03,53,9.10
2015,09,21,03,54,9.10
2015,09,21,03,55,9.10
2015,09,21,03,56,9.00
2015,09,21,03,57,9.00
2015,09,21,03,58,9.00
2015,09,21,03,59,9.10
2015,09,21,04,00,9.10
2015,09,21,04,01,9.10
2015,09,21,04,02,9.10
2015,09,21,04,03,9.10
2015,09,21,04,04,9.00
2015,09,21,04,05,9.00
2015,09,21,04,06,9.00
2015,09,21,04,07,9.00
2015,09,21,04,08,8.90
2015,09,21,04,09,8.90
2015,09,21,04,10,8.90
2015,09,21,04,11,8.90
2015,09,21,04,12,8.90
2015,09,21,04,13,8.90
2015,09,21,04,14,9.00
2015,09,21,04,15,9.00
2015,09,21,04,16,9.00
2015,09,21,04,17,9.10
2015,09,21,04,18,9.10
2015,09,21,04,19,9.20
2015,09,21,04,20,9.20
2015,09,21,04,21,9.30
2015,09,21,04,22,9.30
2015,09,21,04,23,9.30
2015,09,21,04,24,9.30
2015,09,21,04,25,9.40
2015,09,21,04,26,9.40
2015,09,21,04,27,9.40
2015,09,21,04,28,9.40
2015,09,21,04,29,9.40
2015,09,21,04,30,9.50
2015,09,21,04,31,9.50
2015,09,21,04,32,9.50
2015,09,21,04,33,9.50
2015,09,21,04,34,9.50
2015,09,21,04,35,9.50
2015,09,21,04,36,9.50
2015,09,21,04,37,9.40
2015,09,21,04,38,9.40
2015,09,21,04,39,9.40
2015,09,21,04,40,9.40
2015,09,21,04,41,9.40
2015,09,21,04,42,9.30
2015,09,21,04,43,9.30
2015,09,21,04,44,9.30
2015,09,21,04,45,9.30
2015,09,21,04,46,9.20
2015,09,21,04,47,9.20
2015,09,21,04,48,9.20
2015,09,21,04,49,9.20
2015,09,21,04,50,9.10
2015,09,21,04,51,9.10
2015,09,21,04,52,9.10
2015,09,21,04,53,9.00
2015,09,21,04,54,9.00
2015,09,21,04,55,8.90
2015,09,21,04,56,8.90
2015,09,21,04,57,8.90
2015,09,21,04,58,8.90
2015,09,21,04,59,8.80
2015,09,21,05,00,8.80
2015,09,21,05,01,8.70
2015,09,21,05,02,8.70
2015,09,21,05,03,8.70
2015,09,21,05,04,8.60
2015,09,21,05,05,8.50
2015,09,21,05,06,8.50
2015,09,21,05,07,8.40
2015,09,21,05,08,8.40
2015,09,21,05,09,8.30
2015,09,21,05,10,8.20
2015,09,21,05,11,8.20
2015,09,21,05,12,8.10
2015,09,21,05,13,8.10
2015,09,21,05,14,8.00
2015,09,21,05,15,8.00
2015,09,21,05,16,7.90
2015,09,21,05,17,7.80
2015,09,21,05,18,7.80
2015,09,21,05,19,7.70
2015,09,21,05,20,7.70
2015,09,21,05,21,7.60
2015,09,21,05,22,7.60
2015,09,21,05,23,7.50
2015,09,21,05,24,7.40
2015,09,21,05,25,7.40
2015,09,21,05,26,7.40
2015,09,21,05,27,7.30
2015,09,21,05,28,7.30
2015,09,21,05,29,7.30
2015,09,21,05,30,7.20
2015,09,21,05,31,7.20
2015,09,21,05,32,7.20
2015,09,21,05,33,7.20
2015,09,21,05,34,7.10
2015,09,21,05,35,7.10
2015,09,21,05,36,7.00
2015,09,21,05,37,7.00
2015,09,21,05,38,7.00
2015,09,21,05,39,6.90
2015,09,21,05,40,6.90
2015,09,21,05,41,6.90
2015,09,21,05,42,6.80
2015,09,21,05,43,6.80
2015,09,21,05,44,6.80
2015,09,21,05,45,6.80
2015,09,21,05,46,6.70
2015,09,21,05,47,6.70
2015,09,21,05,48,6.70
2015,09,21,05,49,6.70
2015,09,21,05,50,6.70
2015,09,21,05,51,6.70
2015,09,21,05,52,6.70
2015,09,21,05,53,6.60
2015,09,21,05,54,6.60
2015,09,21,05,55,6.50
2015,09,21,05,56,6.40
2015,09,21,05,57,6.40
2015,09,21,05,58,6.30
2015,09,21,05,59,6.30
2015,09,21,06,00,6.20
2015,09,21,06,01,6.20
2015,09,21,06,02,6.10
2015,09,21,06,03,6.10
2015,09,21,06,04,6.10
2015,09,21,06,05,6.00
2015,09,21,06,06,6.00
2015,09,21,06,07,6.00
2015,09,21,06,08,5.90
2015,09,21,06,09,5.90
2015,09,21,06,10,5.90
2015,09,21,06,11,5.90
2015,09,21,06,12,5.90
2015,09,21,06,13,5.90
2015,09,21,06,14,5.90
2015,09,21,06,15,5.90
2015,09,21,06,16,5.90
2015,09,21,06,17,5.90
2015,09,21,06,18,5.90
2015,09,21,06,19,5.90
2015,09,21,06,20,5.90
2015,09,21,06,21,5.90
2015,09,21,06,22,5.90
2015,09,21,06,23,5.90
2015,09,21,06,24,6.00
2015,09,21,06,25,6.00
2015,09,21,06,26,6.00
2015,09,21,06,27,6.00
2015,09,21,06,28,6.00
2015,09,21,06,29,6.00
2015,09,21,06,30,6.10
2015,09,21,06,31,6.10
2015,09,21,06,32,6.10
2015,09,21,06,33,6.10
2015,09,21,06,34,6.10
2015,09,21,06,35,6.10
2015,09,21,06,36,6.10
2015,09,21,06,37,6.10
2015,09,21,06,38,6.10
2015,09,21,06,39,6.10
2015,09,21,06,40,6.10
2015,09,21,06,41,6.10
2015,09,21,06,42,6.10
2015,09,21,06,43,6.10
2015,09,21,06,44,6.10
2015,09,21,06,45,6.10
2015,09,21,06,46,6.10
2015,09,21,06,47,6.10
2015,09,21,06,48,6.10
2015,09,21,06,49,6.00
2015,09,21,06,50,6.00
2015,09,21,06,51,6.00
2015,09,21,06,52,6.00
2015,09,21,06,53,6.00
2015,09,21,06,54,6.00
2015,09,21,06,55,5.90
2015,09,21,06,56,5.90
2015,09,21,06,57,5.90
2015,09,21,06,58,5.90
2015,09,21,06,59,5.90
2015,09,21,07,00,5.90
2015,09,21,07,01,5.90
2015,09,21,07,02,5.90
2015,09,21,07,03,5.90
2015,09,21,07,04,5.90
2015,09,21,07,05,5.90
2015,09,21,07,06,5.90
2015,09,21,07,07,5.80
2015,09,21,07,08,5.80
2015,09,21,07,09,5.80
2015,09,21,07,10,5.80
2015,09,21,07,11,5.80
2015,09,21,07,12,5.70
2015,09,21,07,13,5.70
2015,09,21,07,14,5.70
2015,09,21,07,15,5.60
2015,09,21,07,16,5.60
2015,09,21,07,17,5.50
2015,09,21,07,18,5.50
2015,09,21,07,19,5.50
2015,09,21,07,20,5.40
2015,09,21,07,21,5.40
2015,09,21,07,22,5.40
2015,09,21,07,23,5.40
2015,09,21,07,24,5.30
2015,09,21,07,25,5.30
2015,09,21,07,26,5.30
2015,09,21,07,27,5.30
2015,09,21,07,28,5.30
2015,09,21,07,29,5.30
2015,09,21,07,30,5.30
2015,09,21,07,31,5.30
2015,09,21,07,32,5.30
2015,09,21,07,33,5.30
2015,09,21,07,34,5.30
2015,09,21,07,35,5.30
2015,09,21,07,36,5.40
2015,09,21,07,37,5.40
2015,09,21,07,38,5.40
2015,09,21,07,39,5.40
2015,09,21,07,40,5.40
2015,09,21,07,41,5.40
2015,09,21,07,42,5.40
2015,09,21,07,43,5.30
2015,09,21,07,44,5.30
2015,09,21,07,45,5.30
2015,09,21,07,46,5.30
2015,09,21,07,47,5.30
2015,09,21,07,48,5.30
2015,09,21,07,49,5.40
2015,09,21,07,50,5.40
2015,09,21,07,51,5.40
2015,09,21,07,52,5.50
2015,09,21,07,53,5.60
2015,09,21,07,54,5.60
2015,09,21,07,55,5.70
2015,09,21,07,56,5.80
2015,09,21,07,57,5.80
2015,09,21,07,58,5.90
2015,09,21,07,59,6.00
2015,09,21,08,00,6.10
2015,09,21,08,01,6.20
2015,09,21,08,02,6.30
2015,09,21,08,03,6.50
2015,09,21,08,04,6.60
2015,09,21,08,05,6.70
2015,09,21,08,06,6.70
2015,09,21,08,07,6.80
2015,09,21,08,08,6.80
2015,09,21,08,09,6.80
2015,09,21,08,10,6.90
2015,09,21,08,11,6.90
2015,09,21,08,12,6.90
2015,09,21,08,13,6.90
2015,09,21,08,14,7.00
2015,09,21,08,15,7.00
2015,09,21,08,16,7.00
2015,09,21,08,17,7.00
2015,09,21,08,18,7.00
2015,09,21,08,19,7.00
2015,09,21,08,20,7.00
2015,09,21,08,21,7.00
2015,09,21,08,22,7.00
2015,09,21,08,23,7.10
2015,09,21,08,24,7.10
2015,09,21,08,25,7.20
2015,09,21,08,26,7.20
2015,09,21,08,27,7.30
2015,09,21,08,28,7.40
2015,09,21,08,29,7.50
2015,09,21,08,30,7.50
2015,09,21,08,31,7.70
2015,09,21,08,32,7.80
2015,09,21,08,33,7.80
2015,09,21,08,34,7.90
2015,09,21,08,35,8.00
2015,09,21,08,36,8.10
2015,09,21,08,37,8.20
2015,09,21,08,38,8.30
2015,09,21,08,39,8.40
2015,09,21,08,40,8.50
2015,09,21,08,41,8.60
2015,09,21,08,42,8.70
2015,09,21,08,43,8.80
2015,09,21,08,44,8.80
2015,09,21,08,45,8.90
2015,09,21,08,46,9.00
2015,09,21,08,47,9.10
2015,09,21,08,48,9.10
2015,09,21,08,49,9.20
2015,09,21,08,50,9.30
2015,09,21,08,51,9.40
2015,09,21,08,52,9.50
2015,09,21,08,53,9.60
2015,09,21,08,54,9.70
2015,09,21,08,55,9.80
2015,09,21,08,56,9.80
2015,09,21,08,57,9.90
2015,09,21,08,58,10.00
2015,09,21,08,59,10.10
2015,09,21,09,00,10.20
2015,09,21,09,01,10.30
2015,09,21,09,02,10.40
2015,09,21,09,03,10.50
2015,09,21,09,04,10.50
2015,09,21,09,05,10.60
2015,09,21,09,06,10.70
2015,09,21,09,07,10.70
2015,09,21,09,08,10.80
2015,09,21,09,09,10.90
2015,09,21,09,10,10.90
2015,09,21,09,11,10.90
2015,09,21,09,12,11.00
2015,09,21,09,13,11.00
2015,09,21,09,14,11.10
2015,09,21,09,15,11.10
2015,09,21,09,16,11.10
2015,09,21,09,17,11.20
2015,09,21,09,18,11.20
2015,09,21,09,19,11.20
2015,09,21,09,20,11.20
2015,09,21,09,21,11.30
2015,09,21,09,22,11.30
2015,09,21,09,23,11.40
2015,09,21,09,24,11.40
2015,09,21,09,25,11.50
2015,09,21,09,26,11.50
2015,09,21,09,27,11.60
2015,09,21,09,28,11.60
2015,09,21,09,29,11.60
2015,09,21,09,30,11.70
2015,09,21,09,31,11.70
2015,09,21,09,32,11.70
2015,09,21,09,33,11.70
2015,09,21,09,34,11.80
2015,09,21,09,35,11.80
2015,09,21,09,36,11.90
2015,09,21,09,37,11.90
2015,09,21,09,38,12.00
2015,09,21,09,39,12.00
2015,09,21,09,40,12.10
2015,09,21,09,41,12.10
2015,09,21,09,42,12.10
2015,09,21,09,43,12.20
2015,09,21,09,44,12.20
2015,09,21,09,45,12.20
2015,09,21,09,46,12.20
2015,09,21,09,47,12.20
2015,09,21,09,48,12.20
2015,09,21,09,49,12.20
2015,09,21,09,50,12.20
2015,09,21,09,51,12.20
2015,09,21,09,52,12.30
2015,09,21,09,53,12.30
2015,09,21,09,54,12.30
2015,09,21,09,55,12.30
2015,09,21,09,56,12.40
2015,09,21,09,57,12.40
2015,09,21,09,58,12.40
2015,09,21,09,59,12.40
2015,09,21,10,00,12.40
2015,09,21,10,01,12.40
2015,09,21,10,02,12.40
2015,09,21,10,03,12.40
2015,09,21,10,04,12.40
2015,09,21,10,05,12.40
2015,09,21,10,06,12.40
2015,09,21,10,07,12.50
2015,09,21,10,08,12.50
2015,09,21,10,09,12.50
2015,09,21,10,10,12.60
2015,09,21,10,11,12.60
2015,09,21,10,12,12.60
2015,09,21,10,13,12.60
2015,09,21,10,14,12.60
2015,09,21,10,15,12.70
2015,09,21,10,16,12.70
2015,09,21,10,17,12.70
2015,09,21,10,18,12.70
2015,09,21,10,19,12.70
2015,09,21,10,20,12.70
2015,09,21,10,21,12.80
2015,09,21,10,22,12.80
2015,09,21,10,23,12.90
2015,09,21,10,24,12.90
2015,09,21,10,25,12.90
2015,09,21,10,26,13.00
2015,09,21,10,27,13.10
2015,09,21,10,28,13.20
2015,09,21,10,29,13.20
2015,09,21,10,30,13.30
2015,09,21,10,31,13.40
2015,09,21,10,32,13.40
2015,09,21,10,33,13.40
2015,09,21,10,34,13.40
2015,09,21,10,35,13.40
2015,09,21,10,36,13.40
2015,09,21,10,37,13.50
2015,09,21,10,38,13.50
2015,09,21,10,39,13.50
2015,09,21,10,40,13.50
2015,09,21,10,41,13.60
2015,09,21,10,42,13.50
2015,09,21,10,43,13.50
2015,09,21,10,44,13.50
2015,09,21,10,45,13.50
2015,09,21,10,46,13.50
2015,09,21,10,47,13.50
2015,09,21,10,48,13.50
2015,09,21,10,49,13.50
2015,09,21,10,50,13.50
2015,09,21,10,51,13.50
2015,09,21,10,52,13.50
2015,09,21,10,53,13.50
2015,09,21,10,54,13.50
2015,09,21,10,55,13.50
2015,09,21,10,56,13.50
2015,09,21,10,57,13.60
2015,09,21,10,58,13.60
2015,09,21,10,59,13.60
2015,09,21,11,00,13.60
2015,09,21,11,01,13.60
2015,09,21,11,02,13.70
2015,09,21,11,03,13.70
2015,09,21,11,04,13.70
2015,09,21,11,05,13.80
2015,09,21,11,06,13.80
2015,09,21,11,07,13.80
2015,09,21,11,08,13.80
2015,09,21,11,09,13.90
2015,09,21,11,10,13.90
2015,09,21,11,11,13.90
2015,09,21,11,12,13.90
2015,09,21,11,13,14.00
2015,09,21,11,14,14.00
2015,09,21,11,15,14.00
2015,09,21,11,16,14.00
2015,09,21,11,17,13.90
2015,09,21,11,18,13.90
2015,09,21,11,19,13.90
2015,09,21,11,20,13.90
2015,09,21,11,21,14.00
2015,09,21,11,22,14.00
2015,09,21,11,23,14.10
2015,09,21,11,24,14.10
2015,09,21,11,25,14.20
2015,09,21,11,26,14.20
2015,09,21,11,27,14.20
2015,09,21,11,28,14.20
2015,09,21,11,29,14.30
2015,09,21,11,30,14.30
2015,09,21,11,31,14.30
2015,09,21,11,32,14.30
2015,09,21,11,33,14.30
2015,09,21,11,34,14.20
2015,09,21,11,35,14.20
2015,09,21,11,36,14.20
2015,09,21,11,37,14.20
2015,09,21,11,38,14.30
2015,09,21,11,39,14.30
2015,09,21,11,40,14.30
2015,09,21,11,41,14.30
2015,09,21,11,42,14.40
2015,09,21,11,43,14.40
2015,09,21,11,44,14.50
2015,09,21,11,45,14.60
2015,09,21,11,46,14.60
2015,09,21,11,47,14.70
2015,09,21,11,48,14.70
2015,09,21,11,49,14.80
2015,09,21,11,50,14.90
2015,09,21,11,51,15.00
2015,09,21,11,52,15.00
2015,09,21,11,53,15.10
2015,09,21,11,54,15.10
2015,09,21,11,55,15.20
2015,09,21,11,56,15.20
2015,09,21,11,57,15.30
2015,09,21,11,58,15.30
2015,09,21,11,59,15.30
2015,09,21,12,00,15.30
2015,09,21,12,01,15.30
2015,09,21,12,02,15.30
2015,09,21,12,03,15.30
2015,09,21,12,04,15.30
2015,09,21,12,05,15.30
2015,09,21,12,06,15.30
2015,09,21,12,07,15.30
2015,09,21,12,08,15.30
2015,09,21,12,09,15.30
2015,09,21,12,10,15.30
2015,09,21,12,11,15.30
2015,09,21,12,12,15.30
2015,09,21,12,13,15.20
2015,09,21,12,14,15.20
2015,09,21,12,15,15.10
2015,09,21,12,16,15.10
2015,09,21,12,17,15.20
2015,09,21,12,18,15.20
2015,09,21,12,19,15.20
2015,09,21,12,20,15.20
2015,09,21,12,21,15.20
2015,09,21,12,22,15.20
2015,09,21,12,23,15.20
2015,09,21,12,24,15.30
2015,09,21,12,25,15.30
2015,09,21,12,26,15.30
2015,09,21,12,27,15.40
2015,09,21,12,28,15.40
2015,09,21,12,29,15.40
2015,09,21,12,30,15.40
2015,09,21,12,31,15.30
2015,09,21,12,32,15.30
2015,09,21,12,33,15.20
2015,09,21,12,34,15.20
2015,09,21,12,35,15.20
2015,09,21,12,36,15.30
2015,09,21,12,37,15.20
2015,09,21,12,38,15.10
2015,09,21,12,39,15.10
2015,09,21,12,40,15.00
2015,09,21,12,41,14.90
2015,09,21,12,42,14.90
2015,09,21,12,43,14.90
2015,09,21,12,44,14.80
2015,09,21,12,45,14.70
2015,09,21,12,46,14.60
2015,09,21,12,47,14.50
2015,09,21,12,48,14.30
2015,09,21,12,49,14.20
2015,09,21,12,50,14.10
2015,09,21,12,51,14.00
2015,09,21,12,52,14.00
2015,09,21,12,53,14.00
2015,09,21,12,54,14.00
2015,09,21,12,55,14.10
2015,09,21,12,56,14.10
2015,09,21,12,57,14.20
2015,09,21,12,58,14.30
2015,09,21,12,59,14.40
2015,09,21,13,00,14.50
2015,09,21,13,01,14.60
2015,09,21,13,02,14.70
2015,09,21,13,03,14.70
2015,09,21,13,04,14.80
2015,09,21,13,05,14.80
2015,09,21,13,06,14.80
2015,09,21,13,07,14.90
2015,09,21,13,08,14.80
2015,09,21,13,09,14.80
2015,09,21,13,10,14.70
2015,09,21,13,11,14.60
2015,09,21,13,12,14.60
2015,09,21,13,13,14.50
2015,09,21,13,14,14.50
2015,09,21,13,15,14.40
2015,09,21,13,16,14.40
2015,09,21,13,17,14.30
2015,09,21,13,18,14.30
2015,09,21,13,19,14.30
2015,09,21,13,20,14.30
2015,09,21,13,21,14.40
2015,09,21,13,22,14.40
2015,09,21,13,23,14.50
2015,09,21,13,24,14.50
2015,09,21,13,25,14.60
2015,09,21,13,26,14.60
2015,09,21,13,27,14.60
2015,09,21,13,28,14.60
2015,09,21,13,29,14.50
2015,09,21,13,30,14.50
2015,09,21,13,31,14.60
2015,09,21,13,32,14.60
2015,09,21,13,33,14.60
2015,09,21,13,34,14.70
2015,09,21,13,35,14.70
2015,09,21,13,36,14.70
2015,09,21,13,37,14.70
2015,09,21,13,38,14.70
2015,09,21,13,39,14.70
2015,09,21,13,40,14.80
2015,09,21,13,41,14.80
2015,09,21,13,42,14.90
2015,09,21,13,43,14.90
2015,09,21,13,44,15.00
2015,09,21,13,45,15.10
2015,09,21,13,46,15.20
2015,09,21,13,47,15.20
2015,09,21,13,48,15.20
2015,09,21,13,49,15.20
2015,09,21,13,50,15.20
2015,09,21,13,51,15.20
2015,09,21,13,52,15.20
2015,09,21,13,53,15.20
2015,09,21,13,54,15.20
2015,09,21,13,55,15.20
2015,09,21,13,56,15.20
2015,09,21,13,57,15.20
2015,09,21,13,58,15.20
2015,09,21,13,59,15.20
2015,09,21,14,00,15.20
2015,09,21,14,01,15.20
2015,09,21,14,02,15.20
2015,09,21,14,03,15.30
2015,09,21,14,04,15.30
2015,09,21,14,05,15.40
2015,09,21,14,06,15.40
2015,09,21,14,07,15.40
2015,09,21,14,08,15.50
2015,09,21,14,09,15.50
2015,09,21,14,10,15.50
2015,09,21,14,11,15.60
2015,09,21,14,12,15.70
2015,09,21,14,13,15.70
2015,09,21,14,14,15.80
2015,09,21,14,15,15.80
2015,09,21,14,16,15.90
2015,09,21,14,17,15.90
2015,09,21,14,18,16.00
2015,09,21,14,19,16.10
2015,09,21,14,20,16.20
2015,09,21,14,21,16.20
2015,09,21,14,22,16.30
2015,09,21,14,23,16.30
2015,09,21,14,24,16.30
2015,09,21,14,25,16.30
2015,09,21,14,26,16.20
2015,09,21,14,27,16.20
2015,09,21,14,28,16.20
2015,09,21,14,29,16.10
2015,09,21,14,30,16.10
2015,09,21,14,31,16.10
2015,09,21,14,32,16.00
2015,09,21,14,33,15.90
2015,09,21,14,34,15.90
2015,09,21,14,35,15.90
2015,09,21,14,36,15.90
2015,09,21,14,37,15.80
2015,09,21,14,38,15.80
2015,09,21,14,39,15.80
2015,09,21,14,40,15.90
2015,09,21,14,41,15.90
2015,09,21,14,42,15.90
2015,09,21,14,43,15.90
2015,09,21,14,44,15.90
2015,09,21,14,45,15.90
2015,09,21,14,46,15.90
2015,09,21,14,47,15.90
2015,09,21,14,48,15.90
2015,09,21,14,49,15.90
2015,09,21,14,50,15.90
2015,09,21,14,51,15.90
2015,09,21,14,52,16.00
2015,09,21,14,53,16.00
2015,09,21,14,54,16.10
2015,09,21,14,55,16.10
2015,09,21,14,56,16.10
2015,09,21,14,57,16.10
2015,09,21,14,58,16.00
2015,09,21,14,59,16.00
2015,09,21,15,00,16.00
2015,09,21,15,01,15.90
2015,09,21,15,02,15.90
2015,09,21,15,03,15.90
2015,09,21,15,04,15.90
2015,09,21,15,05,15.90
2015,09,21,15,06,15.90
2015,09,21,15,07,15.80
2015,09,21,15,08,15.80
2015,09,21,15,09,15.80
2015,09,21,15,10,15.80
2015,09,21,15,11,15.80
2015,09,21,15,12,15.80
2015,09,21,15,13,15.80
2015,09,21,15,14,15.80
2015,09,21,15,15,15.70
2015,09,21,15,16,15.70
2015,09,21,15,17,15.80
2015,09,21,15,18,15.80
2015,09,21,15,19,15.80
2015,09,21,15,20,15.80
2015,09,21,15,21,15.90
2015,09,21,15,22,15.90
2015,09,21,15,23,15.90
2015,09,21,15,24,15.90
2015,09,21,15,25,15.90
2015,09,21,15,26,15.90
2015,09,21,15,27,15.90
2015,09,21,15,28,16.00
2015,09,21,15,29,16.00
2015,09,21,15,30,16.00
2015,09,21,15,31,16.10
2015,09,21,15,32,16.00
2015,09,21,15,33,16.10
2015,09,21,15,34,16.10
2015,09,21,15,35,16.10
2015,09,21,15,36,16.00
2015,09,21,15,37,16.00
2015,09,21,15,38,16.00
2015,09,21,15,39,16.10
2015,09,21,15,40,16.10
2015,09,21,15,41,16.10
2015,09,21,15,42,16.10
2015,09,21,15,43,16.10
2015,09,21,15,44,16.10
2015,09,21,15,45,16.10
2015,09,21,15,46,16.10
2015,09,21,15,47,16.10
2015,09,21,15,48,16.10
2015,09,21,15,49,16.10
2015,09,21,15,50,16.10
2015,09,21,15,51,16.10
2015,09,21,15,52,16.00
2015,09,21,15,53,16.00
2015,09,21,15,54,15.90
2015,09,21,15,55,15.90
2015,09,21,15,56,15.80
2015,09,21,15,57,15.70
2015,09,21,15,58,15.70
2015,09,21,15,59,15.70
2015,09,21,16,00,15.60
2015,09,21,16,01,15.60
2015,09,21,16,02,15.60
2015,09,21,16,03,15.50
2015,09,21,16,04,15.40
2015,09,21,16,05,15.40
2015,09,21,16,06,15.40
2015,09,21,16,07,15.40
2015,09,21,16,08,15.30
2015,09,21,16,09,15.30
2015,09,21,16,10,15.30
2015,09,21,16,11,15.20
2015,09,21,16,12,15.20
2015,09,21,16,13,15.20
2015,09,21,16,14,15.20
2015,09,21,16,15,15.20
2015,09,21,16,16,15.20
2015,09,21,16,17,15.20
2015,09,21,16,18,15.20
2015,09,21,16,19,15.20
2015,09,21,16,20,15.20
2015,09,21,16,21,15.20
2015,09,21,16,22,15.20
2015,09,21,16,23,15.20
2015,09,21,16,24,15.20
2015,09,21,16,25,15.20
2015,09,21,16,26,15.20
2015,09,21,16,27,15.20
2015,09,21,16,28,15.20
2015,09,21,16,29,15.20
2015,09,21,16,30,15.20
2015,09,21,16,31,15.20
2015,09,21,16,32,15.20
2015,09,21,16,33,15.20
2015,09,21,16,34,15.30
2015,09,21,16,35,15.30
2015,09,21,16,36,15.30
2015,09,21,16,37,15.40
2015,09,21,16,38,15.40
2015,09,21,16,39,15.40
2015,09,21,16,40,15.50
2015,09,21,16,41,15.50
2015,09,21,16,42,15.60
2015,09,21,16,43,15.60
2015,09,21,16,44,15.70
2015,09,21,16,45,15.70
2015,09,21,16,46,15.70
2015,09,21,16,47,15.80
2015,09,21,16,48,15.80
2015,09,21,16,49,15.80
2015,09,21,16,50,15.90
2015,09,21,16,51,15.90
2015,09,21,16,52,15.90
2015,09,21,16,53,15.90
2015,09,21,16,54,15.90
2015,09,21,16,55,16.00
2015,09,21,16,56,16.00
2015,09,21,16,57,16.00
2015,09,21,16,58,15.90
2015,09,21,16,59,15.90
2015,09,21,17,00,15.80
2015,09,21,17,01,15.80
2015,09,21,17,02,15.80
2015,09,21,17,03,15.80
2015,09,21,17,04,15.70
2015,09,21,17,05,15.70
2015,09,21,17,06,15.60
2015,09,21,17,07,15.60
2015,09,21,17,08,15.60
2015,09,21,17,09,15.50
2015,09,21,17,10,15.40
2015,09,21,17,11,15.40
2015,09,21,17,12,15.40
2015,09,21,17,13,15.40
2015,09,21,17,14,15.30
2015,09,21,17,15,15.30
2015,09,21,17,16,15.30
2015,09,21,17,17,15.30
2015,09,21,17,18,15.30
2015,09,21,17,19,15.30
2015,09,21,17,20,15.30
2015,09,21,17,21,15.30
2015,09,21,17,22,15.20
2015,09,21,17,23,15.20
2015,09,21,17,24,15.20
2015,09,21,17,25,15.10
2015,09,21,17,26,15.10
2015,09,21,17,27,15.10
2015,09,21,17,28,15.10
2015,09,21,17,29,15.00
2015,09,21,17,30,15.00
2015,09,21,17,31,15.00
2015,09,21,17,32,14.90
2015,09,21,17,33,14.90
2015,09,21,17,34,14.90
2015,09,21,17,35,14.90
2015,09,21,17,36,14.90
2015,09,21,17,37,14.80
2015,09,21,17,38,14.80
2015,09,21,17,39,14.80
2015,09,21,17,40,14.80
2015,09,21,17,41,14.80
2015,09,21,17,42,14.80